Regional Weather Roundup
Issued by NWS Midland/Odessa, TX

Skip options and go directly to product.
Home | Oldest Version | Previous Version | Current Version | All | Text Only | Save Text | Print | Product List | Glossary On

Skip product version selection by date and time.   
272
ASUS44 KMAF 201310
RWRMAF
MIDLAND AREA WEATHER ROUNDUP
NATIONAL WEATHER SERVICE MIDLAND TX
800 AM CDT MON OCT 20 2014

...IN SOUTHWEST TEXAS AND SOUTHEAST NEW MEXICO...

CITY           SKY/WX    TMP DP  RH WIND       PRES   REMARKS
ALPINE         CLOUDY    56  53  88 CALM      30.18R
ANDREWS        FAIR      52  51  97 CALM      30.11S FOG
ARTESIA        NOT AVBL
BIG SPRING     PTCLDY    59  55  88 CALM      30.12S
CARLSBAD       CLOUDY    62  58  86 CALM      30.08S
DRYDEN           N/A     67  64  90 E7        30.04R
FORT STOCKTON  CLOUDY    63  58  83 SW6       30.07S
GUAD PASS      FOG       56  55  97 E16       30.16F VSB 1/4
HOBBS          MOCLDY    54  54 100 CALM      30.13S FOG
MARFA          CLOUDY    55  54  94 N3        30.15S
MIDLAND AIRPK  MOCLDY    58  55  88 CALM      30.11R
MIDLAND INTL   CLOUDY    59  56  89 E6        30.09S
ODESSA         CLOUDY    58  55  90 E8        30.10R
PECOS          CLOUDY    60  56  87 NE7       30.06S
PRESIDIO       FAIR      62  60  92 NW5       30.03S
SEMINOLE       PTCLDY    54  53  97 NE3       30.12S
SNYDER         CLEAR     56  55  97 SW3       30.10R FOG
WINK           CLOUDY    61  58  90 NE5       30.06R
$$
...OTHER STATIONS IN TEXAS...

CITY           SKY/WX    TMP DP  RH WIND       PRES   REMARKS
ABILENE        CLEAR     60  57  89 SE8       30.09R
AMARILLO       CLEAR     54  53  97 SW7       30.11S
AUSTIN         PTCLDY    58  58 100 CALM      30.05S FOG
BROWNSVILLE    PTCLDY    72  69  90 N6        29.93R
CORPUS CHRISTI PTCLDY    72  69  90 N7        29.96R
DALLAS FTW     PTCLDY    59  54  83 E3        30.08R
DEL RIO        CLOUDY    67  63  87 E9        30.02R
EL PASO        PTCLDY    57  54  89 N12       30.06F
HOUSTON INT    PTCLDY    60  56  86 VRB7      30.04R
LUBBOCK        FOG       51  49  92 NW6       30.11S VSB 1/2
SAN ANGELO     PTCLDY    55  52  89 CALM      30.09R
SAN ANTONIO    MOCLDY    66  62  87 NE5       30.04R
WACO           PTCLDY    56  55  97 N3        30.07S
WICHITA FALLS  NOT AVBL
$$
...OTHER LOCATIONS IN NEW MEXICO...

CITY           SKY/WX    TMP DP  RH WIND       PRES   REMARKS
ALAMAGORDO     NOT AVBL
ALBUQUERQUE    PTCLDY    49  42  77 CALM      30.20R
CANNON AFB     CLEAR     52  52 100 W5        30.13S
CLOVIS         CLEAR     48  46  93 NW7       30.16R
HOLLOMAN AFB   PTCLDY    54  54 100 NW6       30.08R
ROSWELL        MOCLDY    54  51  90 NW6       30.11R
RUIDOSO        CLOUDY    46  46 100 CALM      30.23S
SANTA FE       CLEAR     43  38  82 N8        30.22S WCI  38
TRUTH OR CONSE PTCLDY    52  50  93 N5        30.11S
TUCUMCARI      CLEAR     50  46  86 NW5       30.12R
$$

USA.gov is the U.S. government's official web portal to all federal, state and local government web resources and services.